Regional Weather Roundup
Issued by NWS

Home | Current Version | Previous Version | Text Only | Print | Product List | Glossary On
Versions: 1 2 3 4 5 6 7 8 9 10 11 12 13 14 15 16 17 18 19 20 21 22 23 24 25 26 27
000
ASUS45 KTFX 180710
RWRMT
MONTANA REGIONAL WEATHER ROUNDUP
NATIONAL WEATHER SERVICE GREAT FALLS MT
1200 AM MST SAT NOV 18 2017

NOTE: "FAIR" INDICATES FEW OR NO CLOUDS BELOW 12000 FEET WITH NO
SIGNIFICANT WEATHER AND/OR OBSTRUCTIONS TO VISIBILITY.

MTZ001>007-043-180800-
WEST OF THE DIVIDE

CITY           SKY/WX    TMP DP  RH WIND       PRES   REMARKS
KALISPELL      CLOUDY    34  28  79 S7        30.15R WCI  28
MISSOULA       CLOUDY    33  27  78 CALM      30.22R
BUTTE          FAIR      23  13  65 NW9       30.15R WCI  13
MULLAN PASS    FLURRIES  23  18  81 W8G21     30.11R WCI  14
ANACONDA         N/A     28  14  54 W10G16    30.16R WCI  19
EUREKA           N/A     37  23  56 MISG      30.12S
HAMILTON         N/A     36  19  51 SE10G16   30.23R WCI  28
LIBBY            N/A     34  28  80 CALM      30.14R
PLAINS           N/A     39  24  55 W1        30.19
RONAN            N/A     34  25  70 CALM      30.21R
$$

MTZ008-052>055-180800-
SOUTHWEST MONTANA

CITY           SKY/WX    TMP DP  RH WIND       PRES   REMARKS
BOZEMAN        MOCLDY    28  12  51 CALM      30.16R
DILLON         FAIR      24  10  55 S14       30.16R WCI  12
W YELLOWSTONE  FAIR      19   9  63 SW10      30.14R WCI   8
ENNIS          CLEAR     23  10  58 S9        30.20R WCI  13
TWIN BRIDGES     N/A     26   9  48 CALM      30.13
$$

MTZ009-010-012-014-046-048-049-054-180800-
EAST SLOPES AND CENTRAL MONTANA

CITY           SKY/WX    TMP DP  RH WIND       PRES   REMARKS
CUT BANK       FAIR      31  21  66 W26G32    29.92R WCI  17
GREAT FALLS    FAIR      29  17  61 SW14      30.00R WCI  18
MALMSTROM AFB  FAIR      30  19  62 SW17      30.01R WCI  18
HELENA         FAIR      35  17  47 W18G30    30.11R WCI  24
BOWMANS CRNR   FAIR      31  15  53 W18       30.00R WCI  19
CHOTEAU          N/A     36  16  44 SW18G29   29.99R WCI  25
FAIRFIELD      FAIR      29  18  63 S6        29.98R WCI  23
POWER          MOCLDY    27  19  71 SW8       29.98R WCI  19
RAYNESFORD     FAIR      33  15  48 SW25G31   29.99R WCI  20
ULM            FAIR      31  18  57 SW15      30.02R WCI  21
$$

MTZ011-013-016-021-045-047-050-051-180800-
NORTH CENTRAL MONTANA

CITY           SKY/WX    TMP DP  RH WIND       PRES   REMARKS
HAVRE          FAIR      13   9  84 W6        30.03R WCI   4
LEWISTOWN      FAIR      26  16  65 NW6       29.98R WCI  19
N BAR RANCH    FAIR      28  10  47 W7        30.00R WCI  21
CHINOOK          N/A     12   9  85 W8        30.03R WCI   1
DENTON         FAIR      25  17  71 SW13      29.96R WCI  14
GEYSER         FAIR      28  16  60 CALM      29.99R
GRASS RANGE    FAIR      28  16  60 SW16      29.95R WCI  16
STANFORD       FAIR      29  15  55 W13       29.98R WCI  18
WINIFRED       FAIR      29  18  62 W10       29.97R WCI  20
$$

MTZ017>020-022>027-061-062-180800-
NORTHEAST MONTANA

CITY           SKY/WX    TMP DP  RH WIND       PRES   REMARKS
GLASGOW        FAIR      13   8  81 W5        29.99R
GLENDIVE       FAIR      25  22  88 N12       29.92R WCI  14
JORDAN           N/A     29  24  82 NW12      29.95R WCI  19
SIDNEY         MOCLDY    14   8  77 N9        29.96R WCI   2
WOLF POINT     MOCLDY    16   7  67 CALM      30.00R
MALTA          MOCLDY    16  10  79 CALM      30.03R
PLENTYWOOD       N/A      9   3  78 CALM      29.92S
POPLAR           N/A     10   7  85 CALM      29.99R
$$

MTZ028>42-056>058-180800-
SOUTHCENTRAL AND SOUTHEAST MONTANA

CITY           SKY/WX    TMP DP  RH WIND       PRES   REMARKS
BAKER          CLOUDY    32  27  81 W12       29.90R WCI  23
BILLINGS       FAIR      33  17  51 NW16      30.03R WCI  23
LIVINGSTON     FAIR      31  15  52 W22       30.07R WCI  18
MILES CITY     FAIR      35  23  61 W16       29.95R WCI  25
BIG TIMBER     MOCLDY    32  12  43 W31G41    30.05S WCI  17
FORSYTH          N/A     34  19  55 W10       29.97R WCI  26
HARLOWTON      FAIR      28  17  65 W23       30.01R WCI  13
LAUREL           N/A     36  14  41 W16       30.06R WCI  26
ROUNDUP          N/A     33  12  42 SW13      29.92R WCI  24
$$

REGIONAL REPORTS...DAKOTAS

CITY           SKY/WX    TMP DP  RH WIND       PRES   REMARKS
WILLISTON      FAIR      12   6  77 N8        29.96R WCI   0
MINOT          CLOUDY    16   8  71 W15       29.87R WCI   1
DICKINSON      FAIR      27  22  81 W14       29.82R WCI  16
BEACH          CLOUDY    30  25  80 W13       29.90R WCI  20
CROSBY         CLOUDY    10   7  85 NW9       29.93R WCI  -2
TIOGA          FAIR       9   7  92 NW7       29.90R WCI  -3
WATFORD CITY   FAIR      12   9  85 W7        29.92R WCI   2
BISMARCK       FAIR      25  23  92 NE3       29.82R
GRAND FORKS    FAIR      13  11  92 W3        29.83R
FARGO          FAIR      21  17  84 NW9       29.83R WCI  11
BUFFALO SD       N/A     26  22  84 W13       29.83R WCI  15
RAPID CITY     FAIR      34  25  69 N13       29.89R WCI  25
$$

REGIONAL REPORTS...WYOMING/IDAHO/WASHINGTON

CITY           SKY/WX    TMP DP  RH WIND       PRES   REMARKS
GILLETTE       MOCLDY    31  20  63 W17G26    29.99R WCI  19
SHERIDAN       FAIR      30  17  58 W13       30.02R WCI  20
BUFFALO WY     FAIR      26   8  46 NW10      30.01R WCI  16
CODY           FAIR      30  12  47 W12G18    30.06R WCI  20
YELLOWSTONE LA   N/A      0  -3  87 CALM      30.14R
IDAHO FALLS    FAIR      28  22  78 S13       30.26R WCI  17
SALMON         MOCLDY    29  17  61 S6        30.27R WCI  23
BOISE          FAIR      30  23  75 SE7       30.35R WCI  23
SPOKANE        FAIR      34  30  85 S12       30.22R WCI  25
$$

REGIONAL REPORTS...ALBERTA

CITY           SKY/WX    TMP DP  RH WIND       PRES   REMARKS
EDMONTON       CLOUDY    10   5  79 SW6       29.90R WCI   1
CALGARY        PTCLDY     9   5  85 SW8       29.88S WCI  -4
LETHBRIDGE     PTCLDY     5   1  85 CALM      29.96S
MEDICINE HAT   CLEAR      5   1  85 SW9       30.04R WCI  -9
$$

REGIONAL REPORTS...SASKATCHEWAN

CITY           SKY/WX    TMP DP  RH WIND       PRES   REMARKS
SWIFT CURRENT  PTCLDY     7   1  78 W14       29.95R WCI -10
REGINA         MOCLDY    10   5  79 NW23G30   29.93R WCI -10
SASKATOON      CLEAR     -6  -9  84 SW6       29.98R WCI -18
$$




USA.gov is the U.S. government's official web portal to all federal, state and local government web resources and services.